Location: Chochol
(49.7771°N, 14.9780°E)
Time: 06:43:18
(UTC+00:00)

CZ-4C R/B - Pass Details

Date: 09 April 2020
Orbit: 637 x 1365 km, 63.4° (Epoch: 02 June)

Event Time Altitude Azimuth Distance (km) Brightness Sun altitude
Rises 20:50:16 0° 316° (NW) 3,751 6.9 -25.6°
Reaches altitude 10° 20:52:42 10° 317° (NW) 2,896 6.0 -25.8°
Maximum altitude 20:59:46 88° 47° (NE) 1,209 2.8 -26.4°
Enters shadow 21:01:50 54° 135° (SE) 1,468 3.0 -26.6°
